Tracking 20242 objects as of 24-Jan-2020
HD Live streaming from Space Station
objects crossing your sky now

COSMOS 385

Track COSMOS 385 now!
10-day predictions
COSMOS 385 is classified as:


NORAD ID: 4799
Int'l Code: 1970-108A
Perigee: 980.3 km
Apogee: 984.7 km
Inclination: 74.0 °
Period: 104.6 minutes
Semi major axis: 7353 km
RCS: 3.9806 m2 (large)
Launch date: December 12, 1970
Source: Commonwealth of Independent States (former USSR) (CIS)
Launch site: PLESETSK MISSILE AND SPACE COMPLEX (PKMTR)
aabbcc
Your satellite tracking list
Your tracking list is empty




NASA's NSSDC Master Catalog

Two Line Element Set (TLE):
1  4799U 70108A   20023.62252155 -.00000024 +00000-0 -19195-5 0  9998
2  4799 074.0230 321.8215 0003016 042.3439 132.1727 13.76774652467125
Source of the keplerian elements: AFSPC